Camanche, IA

7:16 PM CDT on August 28, 2016 (GMT -0500)
Clinton Municipal

Weather History for KCWI - May, 2014

Change the Weather History Date:

Friday, May 2, 2014

  Actual Average Record
Temperature  
Mean Temperature 52 °F -  
Max Temperature 60 °F 68 °F 88 °F (1959)
Min Temperature 44 °F 44 °F 30 °F (1961)
Degree Days  
Heating Degree Days 13    
Growing Degree Days 2 (Base 50)    
Moisture  
Dew Point 40 °F    
Average Humidity 71    
Maximum Humidity 87    
Minimum Humidity 45    
Precipitation  
Precipitation 0.00 in - - ()
Sea Level Pressure  
Sea Level Pressure 29.81 in    
Wind  
Wind Speed 12 mph (WSW)    
Max Wind Speed 21 mph    
Max Gust Speed 24 mph    
Visibility 10 miles    
Events      
Averages and records for this station are not official NWS values.
T = Trace of Precipitation, MM = Missing Value Source: NWS Daily Summary

Daily Weather History Graph

Daily Weather History Graph

Search for Another Location

Airport or City:

Trip Planner

Search our weather history database for the weather conditions in past years. The results will help you decide how hot, cold, wet, or windy it might be!

Date:

Astronomy

May. 02, 2014 Rise Set
Actual Time 5:56 AM CDT 8:00 PM CDT
Civil Twilight 5:25 AM CDT 8:31 PM CDT
Nautical Twilight 4:48 AM CDT 9:08 PM CDT
Astronomical Twilight 4:07 AM CDT 9:49 PM CDT
Moon 8:32 AM CDT (5/2) 11:24 PM CDT (5/2)
Length of Visible Light 15h 05m
Length of Day
14h 04m
Waxing Crescent, 12% of the Moon is Illuminated
May 2
Waxing Crescent
May 6
First Quarter
May 14
Full
May 21
Last Quarter
May 28
New

Hourly Weather History & Observations

Time (CDT) Temp. Windchill Dew Point Humidity Pressure Visibility Wind Dir Wind Speed Gust Speed Precip Events Conditions
12:15 AM 44.6 °F 38.8 °F 41.0 °F 87% 29.88 in 10.0 mi West 11.5 mph - N/A   Overcast
12:35 AM 44.6 °F 38.8 °F 41.0 °F 87% 29.88 in 10.0 mi West 11.5 mph - N/A   Overcast
12:55 AM 44.6 °F 38.8 °F 41.0 °F 87% 29.87 in 10.0 mi West 11.5 mph - N/A   Overcast
1:15 AM 44.6 °F 38.8 °F 41.0 °F 87% 29.87 in 10.0 mi West 11.5 mph - N/A   Overcast
1:35 AM 44.6 °F 38.1 °F 41.0 °F 87% 29.87 in 10.0 mi West 13.8 mph - N/A   Overcast
1:55 AM 44.6 °F 38.4 °F 41.0 °F 87% 29.87 in 10.0 mi West 12.7 mph - N/A   Overcast
2:15 AM 44.6 °F 37.8 °F 41.0 °F 87% 29.86 in 10.0 mi West 15.0 mph - N/A   Overcast
2:35 AM 44.6 °F 38.4 °F 41.0 °F 87% 29.86 in 10.0 mi West 12.7 mph - N/A   Overcast
2:55 AM 44.6 °F 38.4 °F 41.0 °F 87% 29.85 in 10.0 mi West 12.7 mph - N/A   Overcast
3:15 AM 44.6 °F 38.4 °F 41.0 °F 87% 29.86 in 10.0 mi West 12.7 mph - N/A   Overcast
3:35 AM 44.6 °F 38.8 °F 41.0 °F 87% 29.86 in 10.0 mi West 11.5 mph - N/A   Overcast
3:55 AM 44.6 °F 38.8 °F 41.0 °F 87% 29.86 in 10.0 mi West 11.5 mph - N/A   Overcast
4:15 AM 44.6 °F 39.2 °F 41.0 °F 87% 29.86 in 10.0 mi West 10.4 mph - N/A   Overcast
4:35 AM 44.6 °F 38.8 °F 41.0 °F 87% 29.85 in 9.0 mi West 11.5 mph - N/A   Overcast
4:55 AM 44.6 °F 38.8 °F 41.0 °F 87% 29.86 in 9.0 mi West 11.5 mph - N/A   Overcast
5:15 AM 44.6 °F 39.2 °F 41.0 °F 87% 29.85 in 10.0 mi West 10.4 mph - N/A   Overcast
5:35 AM 44.6 °F 40.2 °F 41.0 °F 87% 29.86 in 10.0 mi West 8.1 mph - N/A   Overcast
5:55 AM 44.6 °F 40.2 °F 39.2 °F 81% 29.86 in 10.0 mi West 8.1 mph - N/A   Overcast
6:15 AM 44.6 °F 40.2 °F 39.2 °F 81% 29.86 in 10.0 mi West 8.1 mph - N/A   Overcast
6:35 AM 44.6 °F 39.2 °F 39.2 °F 81% 29.85 in 10.0 mi West 10.4 mph - N/A   Overcast
6:55 AM 44.6 °F 39.2 °F 39.2 °F 81% 29.86 in 10.0 mi West 10.4 mph - N/A   Overcast
7:15 AM 44.6 °F 38.8 °F 39.2 °F 81% 29.86 in 10.0 mi West 11.5 mph - N/A   Overcast
7:35 AM 44.6 °F 39.2 °F 41.0 °F 87% 29.86 in 10.0 mi West 10.4 mph - N/A   Overcast
7:55 AM 44.6 °F 38.8 °F 39.2 °F 81% 29.87 in 10.0 mi West 11.5 mph - N/A   Overcast
8:15 AM 44.6 °F 39.2 °F 39.2 °F 81% 29.87 in 10.0 mi West 10.4 mph - N/A   Overcast
8:35 AM 46.4 °F 41.1 °F 39.2 °F 76% 29.87 in 10.0 mi West 11.5 mph - N/A   Overcast
8:55 AM 46.4 °F 40.4 °F 39.2 °F 76% 29.87 in 10.0 mi West 13.8 mph - N/A   Overcast
9:15 AM 46.4 °F 40.7 °F 39.2 °F 76% 29.86 in 10.0 mi West 12.7 mph - N/A   Overcast
9:35 AM 46.4 °F 40.1 °F 39.2 °F 76% 29.85 in 10.0 mi West 15.0 mph - N/A   Overcast
9:55 AM 48.2 °F - 41.0 °F 76% 29.86 in 10.0 mi West 15.0 mph - N/A   Overcast
10:15 AM 48.2 °F - 39.2 °F 71% 29.86 in 10.0 mi West 13.8 mph - N/A   Overcast
10:35 AM 50.0 °F - 41.0 °F 71% 29.86 in 10.0 mi West 13.8 mph - N/A   Overcast
10:55 AM 50.0 °F - 39.2 °F 66% 29.86 in 10.0 mi West 13.8 mph - N/A   Overcast
11:15 AM 50.0 °F - 39.2 °F 66% 29.86 in 10.0 mi West 13.8 mph - N/A   Overcast
11:35 AM 50.0 °F - 39.2 °F 66% 29.86 in 10.0 mi WNW 15.0 mph - N/A   Overcast
11:55 AM 50.0 °F - 39.2 °F 66% 29.86 in 10.0 mi West 11.5 mph - N/A   Overcast
12:15 PM 50.0 °F - 39.2 °F 66% 29.86 in 10.0 mi West 12.7 mph - N/A   Overcast
12:35 PM 51.8 °F - 39.2 °F 62% 29.85 in 10.0 mi West 12.7 mph - N/A   Overcast
12:55 PM 53.6 °F - 39.2 °F 58% 29.85 in 10.0 mi West 12.7 mph - N/A   Overcast
1:15 PM 51.8 °F - 37.4 °F 58% 29.84 in 10.0 mi West 16.1 mph - N/A   Overcast
1:35 PM 51.8 °F - 39.2 °F 62% 29.84 in 10.0 mi WSW 11.5 mph - N/A   Overcast
1:55 PM 51.8 °F - 39.2 °F 62% 29.83 in 10.0 mi WSW 10.4 mph - N/A   Overcast
2:15 PM 53.6 °F - 39.2 °F 58% 29.81 in 10.0 mi WSW 12.7 mph - N/A   Scattered Clouds
2:35 PM 55.4 °F - 42.8 °F 63% 29.80 in 10.0 mi SW 15.0 mph - N/A   Scattered Clouds
2:55 PM 55.4 °F - 42.8 °F 63% 29.79 in 10.0 mi SW 16.1 mph - N/A   Mostly Cloudy
3:15 PM 55.4 °F - 41.0 °F 58% 29.78 in 10.0 mi WSW 18.4 mph - N/A   Mostly Cloudy
3:35 PM 57.2 °F - 41.0 °F 55% 29.77 in 10.0 mi WSW 13.8 mph 20.7 mph N/A   Mostly Cloudy
3:55 PM 57.2 °F - 41.0 °F 55% 29.76 in 10.0 mi SW 17.3 mph - N/A   Mostly Cloudy
4:15 PM 59.0 °F - 41.0 °F 51% 29.76 in 10.0 mi WSW 17.3 mph - N/A   Mostly Cloudy
4:35 PM 59.0 °F - 39.2 °F 48% 29.74 in 10.0 mi WSW 19.6 mph - N/A   Mostly Cloudy
4:55 PM 57.2 °F - 39.2 °F 51% 29.74 in 10.0 mi SW 15.0 mph 21.9 mph N/A   Mostly Cloudy
5:15 PM 59.0 °F - 39.2 °F 48% 29.73 in 10.0 mi SW 18.4 mph - N/A   Mostly Cloudy
5:35 PM 57.2 °F - 39.2 °F 51% 29.74 in 10.0 mi SW 13.8 mph - N/A   Mostly Cloudy
5:55 PM 57.2 °F - 39.2 °F 51% 29.74 in 10.0 mi SW 15.0 mph - N/A   Mostly Cloudy
6:15 PM 60.8 °F - 39.2 °F 45% 29.71 in 10.0 mi SW 12.7 mph 20.7 mph N/A   Scattered Clouds
6:35 PM 57.2 °F - 41.0 °F 55% 29.71 in 10.0 mi SSW 13.8 mph - N/A   Mostly Cloudy
7:15 PM 55.4 °F - 41.0 °F 58% 29.71 in 10.0 mi SW 12.7 mph 21.9 mph N/A   Mostly Cloudy
7:35 PM 55.4 °F - 39.2 °F 54% 29.70 in 10.0 mi SSW 12.7 mph - N/A   Mostly Cloudy
7:55 PM 55.4 °F - 41.0 °F 58% 29.69 in 10.0 mi South 13.8 mph - N/A   Mostly Cloudy
8:15 PM 53.6 °F - 41.0 °F 62% 29.68 in 10.0 mi South 13.8 mph - N/A   Mostly Cloudy
8:35 PM 53.6 °F - 42.8 °F 67% 29.67 in 10.0 mi South 13.8 mph - N/A   Overcast
8:55 PM 53.6 °F - 42.8 °F 67% 29.68 in 10.0 mi SSW 9.2 mph - N/A   Overcast
9:15 PM 55.4 °F - 41.0 °F 58% 29.69 in 10.0 mi SW 15.0 mph - N/A   Overcast
9:35 PM 55.4 °F - 39.2 °F 54% 29.69 in 10.0 mi West 20.7 mph - N/A   Mostly Cloudy
9:55 PM 53.6 °F - 42.8 °F 67% 29.72 in 10.0 mi WNW 17.3 mph 24.2 mph N/A   Partly Cloudy
10:15 PM 51.8 °F - 42.8 °F 71% 29.72 in 10.0 mi WNW 15.0 mph - N/A   Clear
10:35 PM 50.0 °F - 42.8 °F 76% 29.73 in 10.0 mi WNW 11.5 mph - N/A   Clear
10:55 PM 48.2 °F - 41.0 °F 76% 29.73 in 10.0 mi West 10.4 mph - N/A   Clear
11:15 PM 46.4 °F 42.4 °F 39.2 °F 76% 29.73 in 10.0 mi West 8.1 mph - N/A   Clear
11:35 PM 44.6 °F 40.2 °F 39.2 °F 81% 29.72 in 10.0 mi West 8.1 mph - N/A   Clear
11:55 PM 44.6 °F 39.2 °F 39.2 °F 81% 29.72 in 10.0 mi West 10.4 mph - N/A   Clear